This demonstration page uses our WeatherBlox Daily Observations layout. Learn more.

Left ArrowRight Arrow

Hourly Observations for August 10, 2022

Temp ( °F °C ) Dew Point ( °F °C ) Humidity (%) Winds ( mph kmh ) Pressure ( in mb ) Visibility ( mi km ) Precip ( " mm )
12:53 am 00:53 Clear 68 20 44 6.7 42 42 E 14 22 30.05 1018 10 16 0.00 0.00
1:53 am 01:53 Clear 68 20 42 5.6 39 39 ENE 15 24 30.05 1018 10 16 0.00 0.00
2:53 am 02:53 Clear 67 19.4 42 5.6 40 40 ENE 13 20 30.04 1017 10 16 0.00 0.00
3:53 am 03:53 Clear 67 19.4 42 5.6 40 40 ENE 14 22 30.05 1018 10 16 0.00 0.00
4:53 am 04:53 Clear 67 19.4 43 6.1 42 42 E 16 26 30.04 1017 10 16 0.00 0.00
5:53 am 05:53 Clear 67 19.4 44 6.7 44 44 ENE 15 24 30.04 1017 10 16 0.00 0.00
6:53 am 06:53 Sunny 66 18.9 45 7.2 47 47 E 21 33 30.04 1017 10 16 0.00 0.00
7:53 am 07:53 Sunny 68 20 46 7.8 45 45 E 18 30 30.05 1018 10 16 0.00 0.00
8:53 am 08:53 Sunny 72 22.2 47 8.3 41 41 E 17 28 30.06 1018 10 16 0.00 0.00
9:53 am 09:53 Sunny 78 25.6 48 8.9 35 35 E 21 33 30.04 1017 10 16 0.00 0.00
10:53 am 10:53 Sunny 83 28.3 51 10.6 33 33 E 20 31 30.03 1017 10 16 0.00 0.00
11:53 am 11:53 Sunny 87 30.6 53 11.7 31 31 E 24 39 30.01 1016 10 16 0.00 0.00
12:53 pm 12:53 Sunny 91 32.8 54 12.2 29 29 ESE 22 35 29.99 1016 10 16 0.00 0.00
1:53 pm 13:53 Sunny 93 33.9 53 11.7 26 26 ESE 24 39 29.98 1015 10 16 0.00 0.00
2:53 pm 14:53 Sunny 95 35 52 11.1 24 24 ESE 22 35 29.97 1015 10 16 0.00 0.00
3:53 pm 15:53 Sunny 95 35 52 11.1 24 24 E 21 33 29.95 1014 10 16 0.00 0.00
4:53 pm 16:53 Sunny 95 35 53 11.7 24 24 E 20 31 29.94 1014 10 16 0.00 0.00
5:53 pm 17:53 Sunny 93 33.9 53 11.7 26 26 E 22 35 29.94 1014 10 16 0.00 0.00
6:53 pm 18:53 Sunny 91 32.8 53 11.7 28 28 E 20 31 29.94 1014 10 16 0.00 0.00
7:53 pm 19:53 Sunny 88 31.1 53 11.7 30 30 E 13 20 29.96 1015 10 16 0.00 0.00
8:53 pm 20:53 Mostly Clear 86 30 53 11.7 32 32 E 22 35 29.96 1015 10 16 0.00 0.00
9:53 pm 21:53 Partly Cloudy 84 28.9 53 11.7 35 35 E 20 31 29.97 1015 10 16 0.01 0.13
10:53 pm 22:53 Clear 83 28.3 52 11.1 34 34 E 18 30 29.97 1015 10 16 0.00 0.00
11:53 pm 23:53 Clear 81 27.2 52 11.1 37 37 E 18 30 29.98 1015 10 16 0.00 0.00

Powered by AerisWeather